This demonstration page uses our WeatherBlox Daily Observations layout. Learn more.

Left ArrowRight Arrow

Hourly Observations for June 29, 2021

Temp ( °F °C ) Dew Point ( °F °C ) Humidity (%) Winds ( mph kmh ) Pressure ( in mb ) Visibility ( mi km ) Precip ( " mm )
12:53 am 00:53 Cloudy 77 25 69 20.6 77 77 Calm 30.14 1021 10 16 0.00 0.00
1:53 am 01:53 Mostly Cloudy 77 25 69 20.6 77 77 Calm 30.13 1020 10 16 0.00 0.00
2:53 am 02:53 Cloudy with Light Rain 78 25.6 68 20 71 71 NE 13 20 30.13 1020 10 16 0.00 0.00
3:53 am 03:53 Cloudy with Light Rain 73 22.8 70 21.1 90 90 NNE 9 15 30.12 1020 9 14 0.10 2.54
4:53 am 04:53 Cloudy 74 23.3 70 21.1 88 88 ENE 12 19 30.13 1020 10 16 0.01 0.25
5:53 am 05:53 Mostly Clear 73 22.8 70 21.1 90 90 ENE 9 15 30.16 1021 10 16 0.00 0.00
6:53 am 06:53 Partly Cloudy 73 22.8 70 21.1 90 90 E 6 9 30.18 1022 10 16 0.00 0.00
7:05 am 07:05 Mostly Cloudy 73 22.8 70 21.1 90 90 E 6 9 30.18 1022 10 16 0.00 0.00
7:25 am 07:25 Mostly Cloudy 73 22.8 70 21.1 90 90 E 5 7 30.19 1022 10 16 0.00 0.00
7:33 am 07:33 Partly Cloudy 73 22.8 70 21.1 90 90 E 5 7 30.19 1022 10 16 0.00 0.00
7:53 am 07:53 Partly Cloudy 73 22.8 70 21.1 90 90 E 5 7 30.19 1023 10 16 0.00 0.00
8:28 am 08:28 Partly Cloudy 75 23.9 70 21.1 84 84 ENE 3 6 30.20 1023 10 16 0.00 0.00
8:49 am 08:49 Mostly Cloudy 75 24 70 21 83 83 VRB 3 6 30.21 1023 10 16 0.00 0.00
8:53 am 08:53 Mostly Cloudy 76 24.4 70 21.1 82 82 ESE 5 7 30.21 1023 10 16 0.00 0.00
9:53 am 09:53 Cloudy 78 25.6 69 20.6 74 74 SSE 9 15 30.21 1023 10 16 0.00 0.00
10:53 am 10:53 Cloudy 78 25.6 70 21.1 76 76 SSE 8 13 30.21 1023 10 16 0.00 0.00
11:28 am 11:28 Mostly Cloudy 79 26.1 68 20 69 69 SE 10 17 30.21 1023 10 16 0.00 0.00
11:53 am 11:53 Cloudy 78 25.6 69 20.6 74 74 S 9 15 30.22 1023 10 16 0.00 0.00
12:53 pm 12:53 Mostly Cloudy 80 26.7 70 21.1 71 71 S 9 15 30.21 1023 10 16 0.00 0.00
1:53 pm 13:53 Partly Cloudy 82 27.8 69 20.6 65 65 VRB 6 9 30.19 1023 10 16 0.00 0.00
2:53 pm 14:53 Partly Cloudy 85 29.4 69 20.6 59 59 S 10 17 30.18 1022 10 16 0.00 0.00
3:53 pm 15:53 Mostly Sunny 86 30 67 19.4 53 53 S 9 15 30.17 1022 10 16 0.00 0.00
4:53 pm 16:53 Mostly Sunny 87 30.6 64 17.8 46 46 S 10 17 30.17 1022 10 16 0.00 0.00
5:53 pm 17:53 Sunny 87 30.6 62 16.7 43 43 VRB 6 9 30.17 1022 10 16 0.00 0.00
6:53 pm 18:53 Sunny 86 30 61 16.1 43 43 S 9 15 30.17 1022 10 16 0.00 0.00
7:53 pm 19:53 Sunny 84 28.9 64 17.8 51 51 S 8 13 30.18 1022 10 16 0.00 0.00
8:53 pm 20:53 Clear 82 27.8 66 18.9 58 58 SSE 3 6 30.19 1022 10 16 0.00 0.00
9:53 pm 21:53 Clear 77 25 67 19.4 71 71 Calm 30.20 1023 10 16 0.00 0.00
10:53 pm 22:53 Clear 74 23.3 68 20 82 82 Calm 30.22 1023 10 16 0.00 0.00
11:53 pm 23:53 Clear 72 22.2 68 20 87 87 Calm 30.22 1024 10 16 0.00 0.00

Powered by AerisWeather